Pagina principale
METAR-TAF:

METAR-TAF

Aeroporti :

Aeroporto di Padova

Padova, Italia

latitudine: 45-23-45N, longitudine: 11-50-53E, altezza: 13 m

Osservazione

Il bollettino è stato emesso 21 ore e 21 minuti fa, alle 06:00 UTC
Vento 1 kt da direzioni variabili
Temperature 13°C
Umidità 100%
Pressione 1016 hPa
Visibilità 10 km o più
Poco nuvoloso ad un'altezza di 6000 ft

METAR: LIPU 180600Z VRB01KT 9999 FEW060 13/13 Q1016

Ora: 05:21 (03:21 UTC)


TAF: mancante

Osservazioni e previsioni meteorologiche di più di 4000 aeroporti (messaggi METAR e TAF).

Le stazioni disponibili sono rappresentate dai dischi gialli e rossi sulla carta.

Puntare il mouse per vedere il nome della stazione.

Clicca sopra per visualizzare le osservazioni e previsioni meteorologiche.

Per cambiare la mappa : fare clic sui pulsanti verdi con una croce nera per ingrandire, il pulsante verde con un trattino per diminuire, o sulla freccia verde per le mappe adiacenti.


METAR-TAF: